This demonstration page uses our WeatherBlox Daily Observations layout. Learn more.

Left ArrowRight Arrow

Hourly Observations for April 23, 2019

Temp ( °F °C ) Dew Point ( °F °C ) Humidity (%) Winds ( mph kmh ) Pressure ( in mb ) Visibility ( mi km ) Precip ( " mm )
12:32 am 00:32 Cloudy 51 10.6 45 7.2 80 80 NNW 16 26 30.12 1020 10 16 0.00 0.00
12:52 am 00:52 Cloudy 51 10.6 44 6.7 77 77 N 12 19 30.12 1020 10 16 0.00 0.00
1:52 am 01:52 Cloudy 50 10 43 6.1 77 77 N 14 22 30.12 1020 10 16 0.00 0.00
2:10 am 02:10 Cloudy 50 10 43 6.1 77 77 N 14 22 30.12 1020 10 16 0.00 0.00
2:52 am 02:52 Cloudy 50 10 42 5.6 74 74 N 15 24 30.12 1020 10 16 0.00 0.00
3:52 am 03:52 Partly Cloudy 49 9.4 41 5 74 74 N 13 20 30.12 1020 10 16 0.00 0.00
4:52 am 04:52 Mostly Cloudy 47 8.3 42 5.6 83 83 N 8 13 30.13 1020 10 16 0.00 0.00
5:52 am 05:52 Mostly Cloudy 47 8.3 41 5 80 80 N 10 17 30.12 1020 10 16 0.00 0.00
6:35 am 06:35 Cloudy 47 8.3 41 5 80 80 N 10 17 30.15 1021 10 16 0.00 0.00
6:52 am 06:52 Cloudy 47 8.3 41 5 80 80 N 10 17 30.15 1021 10 16 0.00 0.00
7:50 am 07:50 Mostly Cloudy 46 8 41 5 82 82 N 13 20 30.18 1022 10 16 0.00 0.00
7:52 am 07:52 Mostly Cloudy 46 7.8 41 5 83 83 N 13 20 30.16 1022 10 16 0.00 0.00
8:07 am 08:07 Mostly Cloudy 46 7.8 40 4.4 79 79 N 13 20 30.18 1022 10 16 0.00 0.00
8:52 am 08:52 Mostly Cloudy 48 8.9 40 4.4 74 74 N 13 20 30.16 1021 10 16 0.00 0.00
9:52 am 09:52 Mostly Cloudy 51 10.6 42 5.6 71 71 NNW 14 22 30.15 1021 10 16 0.00 0.00
10:52 am 10:52 Mostly Cloudy 57 13.9 39 3.9 51 51 NNE 13 20 30.14 1021 10 16 0.00 0.00
11:52 am 11:52 Mostly Cloudy 62 16.7 36 2.2 38 38 NNE 13 20 30.13 1020 10 16 0.00 0.00
12:52 pm 12:52 Mostly Cloudy 66 18.9 32 0 28 28 NNE 14 22 30.10 1019 10 16 0.00 0.00
1:52 pm 13:52 Mostly Cloudy 69 20.6 29 -1.7 22 22 NE 13 20 30.07 1018 10 16 0.00 0.00
2:52 pm 14:52 Mostly Cloudy 70 21.1 26 -3.3 19 19 E 16 26 30.05 1018 10 16 0.00 0.00
3:52 pm 15:52 Mostly Cloudy 71 21.7 27 -2.8 19 19 NNE 12 19 30.03 1017 10 16 0.00 0.00
4:52 pm 16:52 Mostly Cloudy 70 21.1 27 -2.8 20 20 ENE 9 15 30.01 1016 10 16 0.00 0.00
5:52 pm 17:52 Mostly Cloudy 69 20.6 29 -1.7 22 22 ENE 8 13 30.01 1016 10 16 0.00 0.00
6:43 pm 18:43 Mostly Cloudy 69 20.6 29 -1.7 22 22 E 7 11 29.97 1015 10 16 0.00 0.00
6:52 pm 18:52 Mostly Cloudy 68 20 30 -1.1 24 24 E 6 9 29.99 1016 10 16 0.00 0.00
7:52 pm 19:52 Mostly Cloudy 65 18.3 33 0.6 31 31 E 7 11 29.98 1015 10 16 0.00 0.00
8:52 pm 20:52 Mostly Cloudy 61 16.1 32 0 34 34 E 7 11 29.98 1015 10 16 0.00 0.00
9:52 pm 21:52 Mostly Cloudy 59 15 33 0.6 38 38 ESE 8 13 29.98 1015 10 16 0.00 0.00
10:52 pm 22:52 Mostly Cloudy 56 13.3 36 2.2 47 47 ESE 6 9 29.99 1016 10 16 0.00 0.00
11:52 pm 23:52 Mostly Cloudy 54 12.2 41 5 62 62 SSE 6 9 29.98 1015 10 16 0.00 0.00

Powered by AerisWeather